{"data":{"norad_id":60157,"intl_designator":"2024-120Y","name":"STARLINK-32129","alt_names":[],"object_type":"PAYLOAD","status":"ACTIVE","operator":null,"country":"US","launch_date":"2024-06-27","launch_site_code":"AFETR","launch_vehicle":null,"mission":null,"orbit_class":"UNKNOWN","rcs_meters":null,"size_class":null,"mass_kg":null,"dimensions":null,"purposes":["comms"],"wikipedia_slug":null,"has_3d_model":false,"image_url":null,"decayed_at":null,"tle_current":{"epoch":"2026-09-21T21:15:49.967136Z","epoch_age_seconds":62530,"freshness":"FRESH","line1":"1 60157U 24120Y   26264.88599499 -.00000641  00000+0 -78287-5 0  9998","line2":"2 60157  53.1591 125.1414 0001364  84.5009 275.6149 15.34390013126544","mean_motion":15.34390013,"eccentricity":0.0001364,"inclination_deg":53.1591,"raan_deg":125.1414,"arg_perigee_deg":84.5009,"mean_anomaly_deg":275.6149,"bstar":-7.8287e-6,"rev_number":12654,"period_min":93.848368915316,"perigee_km":461.79982917916,"apogee_km":463.66601849438,"semimajor_km":6840.8699238368,"source":"CELESTRAK","updated_at":"2026-09-22T09:00:49.181256Z"}}}